Torna al catalogo

IRIDIUM 137

AttivoComunicazioniPO
NORAD 43076·PAYLOAD·🇺🇸 United States

Lanciato Dec 23, 2017 da Vandenberg Space Force Base

Loading…

Prossimi Passaggi (prossime 24 ore)

TLE

AggiornatoSource: CelesTrak SupGP

Epoca: Sep 14, 2026, 09:30 UTC

1 43076C 17083G   26257.39618056  .00001757  00000+0  62840-3 0  2578
2 43076  86.3918 284.8700 0001962  98.2361  22.4810 14.34214425    11

Traccia IRIDIUM 137 in tempo reale con AllMySat

Download on the App Store